Location: Stanford
(52.2833°N, 2.4333°W)
Time: 01:21:11
(UTC+00:00)

Feng Yun 1-1 Rocket - Pass Details

Date: 22 January 2021
Orbit: 830 x 933 km, 99.2° (Epoch: 28 February)

Event Time Altitude Azimuth Distance (km) Brightness Sun altitude
Rises 17:47:03 0° 153° (SSE) 3,379 7.3 -10.2°
Reaches altitude 10° 17:49:22 10° 151° (SSE) 2,458 6.5 -10.6°
Maximum altitude 17:54:47 70° 69° (ENE) 911 4.2 -11.4°
Drops below altitude 10° 18:00:22 10° 347° (NNW) 2,533 6.7 -12.2°
Sets 18:02:48 0° 346° (NNW) 3,490 7.4 -12.5°
